�N����,����,�~����,�C��,���x,�C��,����,���ϕ���,�ő�u�ԕ���,�ő厞����,���˗�,�I�_���x,�n�����x,�ő啗���N��,DTYPE
"18/06/07","00:10",0.0,19.3,97.2,1006.9,312.2,1.2,1.8,317.3,0.00,18.9,19.9,"00:04:08",1
"18/06/07","00:20",0.2,19.3,97.2,1006.9,296.4,1.0,1.6,308.1,0.00,18.9,19.8,"00:13:36",1
"18/06/07","00:30",0.0,19.2,97.2,1006.9,294.5,1.0,1.4,320.3,0.00,18.8,19.8,"00:28:00",1
"18/06/07","00:40",0.0,19.2,97.2,1007.4,288.2,0.8,1.3,308.5,0.00,18.8,19.8,"00:31:28",1
"18/06/07","00:50",0.0,19.2,97.3,1007.1,300.2,1.1,1.9,311.6,0.00,18.8,19.8,"00:47:52",1
"18/06/07","01:00",0.2,19.3,97.3,1007.1,311.0,1.0,1.8,341.2,0.00,18.9,19.7,"00:54:16",1
"18/06/07","01:10",0.0,19.2,97.3,1007.1,267.6,0.7,1.1,247.4,0.00,18.8,19.8,"01:04:56",1
"18/06/07","01:20",0.2,19.2,97.4,1007.4,269.1,0.7,1.1,265.0,0.00,18.8,20.0,"01:11:36",1
"18/06/07","01:30",0.0,19.2,97.4,1007.6,290.6,0.7,1.2,314.5,0.00,18.8,19.9,"01:29:36",1
"18/06/07","01:40",0.0,19.2,97.4,1007.4,269.6,0.5,1.2,317.1,0.00,18.8,19.4,"01:30:08",1
"18/06/07","01:50",0.2,19.2,97.4,1007.4,278.5,0.7,1.2,310.2,0.00,18.8,20.0,"01:43:04",1
"18/06/07","02:00",0.2,19.2,97.5,1007.8,272.9,0.6,1.0,299.5,0.00,18.8,19.9,"01:59:52",1
"18/06/07","02:10",0.0,19.2,97.4,1007.8,293.3,0.6,0.9,309.1,0.00,18.8,20.0,"02:03:52",1
"18/06/07","02:20",0.2,19.2,97.5,1007.6,311.1,0.8,1.3,325.7,0.00,18.8,20.0,"02:16:32",1
"18/06/07","02:30",0.0,19.2,97.5,1007.8,303.1,0.7,1.3,331.8,0.00,18.8,19.9,"02:28:24",1
"18/06/07","02:40",0.2,19.2,97.6,1008.1,287.7,0.7,1.8,320.4,0.00,18.9,19.8,"02:32:00",1
"18/06/07","02:50",0.0,19.1,97.6,1007.8,293.1,0.6,1.1,313.9,0.00,18.8,19.7,"02:41:12",1
"18/06/07","03:00",0.2,19.1,97.6,1007.8,274.6,0.6,0.9,266.3,0.00,18.8,19.8,"02:50:32",1
"18/06/07","03:10",0.0,19.1,97.7,1007.8,281.4,0.5,0.8,312.1,0.00,18.8,19.8,"03:08:14",1
"18/06/07","03:20",0.2,19.1,97.7,1008.1,298.1,0.6,1.0,320.9,0.00,18.8,19.8,"03:19:22",1
"18/06/07","03:30",0.0,19.1,97.7,1007.8,319.7,0.7,1.0,316.1,0.00,18.8,19.7,"03:24:40",1
"18/06/07","03:40",0.2,19.1,97.7,1007.8,304.2,0.7,1.2,321.4,0.00,18.8,19.8,"03:31:28",1
"18/06/07","03:50",0.2,19.1,97.8,1007.6,302.8,0.6,1.0,318.5,0.00,18.8,19.8,"03:46:24",1
"18/06/07","04:00",0.0,19.1,97.8,1007.8,338.6,0.7,1.1,340.7,0.00,18.8,19.6,"03:51:28",1
"18/06/07","04:10",0.0,19.0,97.8,1008.6,316.0,0.7,1.1,320.4,0.00,18.7,19.7,"04:06:06",1
"18/06/07","04:20",0.2,18.9,97.9,1007.8,296.5,0.7,1.0,300.8,0.00,18.6,19.6,"04:18:56",1
"18/06/07","04:30",0.2,18.9,97.9,1008.3,286.8,0.8,1.3,304.7,0.00,18.6,19.6,"04:22:24",1
"18/06/07","04:40",0.0,18.9,97.9,1008.3,294.4,0.6,1.2,318.7,0.00,18.6,19.6,"04:33:52",1
"18/06/07","04:50",0.0,19.0,97.9,1008.1,253.0,0.3,0.6,245.0,0.00,18.7,19.7,"04:44:24",1
"18/06/07","05:00",0.2,19.0,97.9,1008.8,274.4,0.6,1.0,259.4,0.00,18.7,19.7,"04:57:52",1
"18/06/07","05:10",0.0,18.9,98.0,1008.6,289.5,0.7,1.0,310.1,0.00,18.6,19.5,"05:08:42",1
"18/06/07","05:20",0.2,19.1,97.4,1008.6,311.3,0.8,1.9,339.4,0.00,18.7,19.7,"05:15:26",1
"18/06/07","05:30",0.0,19.1,97.9,1008.8,324.8,0.7,1.2,340.6,0.00,18.8,19.5,"05:20:16",1
"18/06/07","05:40",0.0,19.1,97.9,1008.6,331.4,0.7,1.6,329.4,0.00,18.8,19.7,"05:39:38",1
"18/06/07","05:50",0.2,19.2,97.9,1008.6,303.0,0.7,1.4,313.1,0.00,18.9,19.7,"05:40:42",1
"18/06/07","06:00",0.0,19.3,98.0,1008.6,267.9,0.6,1.0,284.2,0.00,19.0,19.7,"05:50:48",1
"18/06/07","06:10",0.2,19.5,97.3,1008.3,288.2,0.6,1.0,330.9,0.01,19.1,19.6,"06:02:08",1
"18/06/07","06:20",0.0,19.5,97.8,1008.6,256.9,0.5,0.8,251.3,0.01,19.2,19.5,"06:14:16",1
"18/06/07","06:30",0.0,19.6,98.0,1008.8,281.8,0.5,0.9,312.0,0.01,19.3,19.8,"06:27:44",1
"18/06/07","06:40",0.2,20.0,97.0,1008.8,295.4,0.5,1.0,295.0,0.07,19.5,19.7,"06:31:36",1
"18/06/07","06:50",0.0,20.2,97.6,1008.8,338.9,0.2,0.9,331.1,0.07,19.8,19.8,"06:42:48",1
"18/06/07","07:00",0.0,20.2,97.3,1008.8,36.2,0.2,0.8,16.2,0.07,19.8,19.7,"06:50:40",1
"18/06/07","07:10",0.2,20.1,97.4,1008.6,345.7,0.1,0.9,352.9,0.08,19.7,19.9,"07:00:08",1
"18/06/07","07:20",0.0,20.6,97.3,1008.8,335.7,0.5,1.1,334.0,0.12,20.2,19.8,"07:16:00",1
"18/06/07","07:30",0.0,20.6,97.0,1008.6,344.3,0.5,1.1,355.2,0.09,20.1,19.8,"07:23:52",1
"18/06/07","07:40",0.2,20.5,95.6,1008.3,339.5,0.6,1.2,337.2,0.13,19.8,19.9,"07:33:36",1
"18/06/07","07:50",0.0,21.7,94.7,1008.6,285.2,0.3,1.3,329.6,0.24,20.9,19.9,"07:47:12",1
"18/06/07","08:00",0.0,22.0,91.1,1008.6,326.5,0.6,1.3,346.7,0.30,20.5,19.8,"07:59:04",1
"18/06/07","08:10",0.2,22.7,89.3,1008.1,324.2,0.6,1.4,27.9,0.32,20.9,20.2,"08:01:52",1
"18/06/07","08:20",0.0,22.7,84.9,1008.6,334.9,0.3,0.8,37.4,0.29,20.1,20.2,"08:14:32",1
"18/06/07","08:30",0.0,23.3,83.0,1007.8,178.0,0.6,2.0,128.0,0.37,20.3,20.3,"08:24:24",1
"18/06/07","08:40",0.0,23.6,83.1,1008.3,2.9,0.6,2.0,348.7,0.40,20.6,20.5,"08:38:08",1
"18/06/07","08:50",0.2,24.1,81.2,1008.3,134.1,0.6,1.2,101.1,0.39,20.7,20.6,"08:43:12",1
"18/06/07","09:00",0.0,23.9,82.1,1008.1,207.5,0.8,2.0,224.7,0.30,20.7,20.7,"08:52:32",1
"18/06/07","09:10",0.0,24.4,79.0,1008.3,125.8,1.1,2.7,152.5,0.42,20.6,21.1,"09:06:56",1
"18/06/07","09:20",0.2,23.5,82.9,1008.1,156.9,1.1,2.0,155.3,0.14,20.5,20.9,"09:19:28",1
"18/06/07","09:30",0.0,23.5,81.3,1007.8,214.4,1.2,3.2,233.3,0.23,20.2,21.2,"09:29:20",1
"18/06/07","09:40",0.0,25.0,81.1,1007.1,186.1,1.2,2.8,192.3,0.47,21.6,21.4,"09:33:36",1
"18/06/07","09:50",0.0,24.7,78.8,1006.7,155.3,1.1,2.8,210.2,0.40,20.8,21.4,"09:44:00",1
"18/06/07","10:00",0.0,24.1,80.1,1007.4,192.6,1.3,4.4,199.0,0.23,20.5,21.6,"09:55:28",1
"18/06/07","10:10",0.2,25.8,77.5,1006.4,175.6,1.1,3.6,185.8,0.48,21.6,21.9,"10:08:24",1
"18/06/07","10:20",0.0,24.7,77.6,1006.2,122.1,1.1,2.8,166.7,0.22,20.6,21.8,"10:12:40",1
"18/06/07","10:30",0.0,25.1,75.1,1006.4,166.1,1.7,3.2,161.1,0.53,20.4,22.0,"10:26:56",1
"18/06/07","10:40",0.2,25.6,74.6,1006.7,139.2,1.5,2.6,130.7,0.45,20.8,22.1,"10:34:56",1
"18/06/07","10:50",0.0,26.3,74.7,1006.7,153.1,1.5,3.9,140.6,0.40,21.5,22.3,"10:46:40",1
"18/06/07","11:00",0.0,26.0,71.8,1006.4,185.2,2.2,4.3,194.2,0.57,20.6,22.6,"10:52:56",1
"18/06/07","11:10",0.0,25.3,73.9,1006.0,190.5,2.1,4.2,224.7,0.40,20.4,22.6,"11:05:20",1
"18/06/07","11:20",0.2,26.1,75.6,1005.7,207.6,1.6,3.7,207.4,0.48,21.5,22.9,"11:12:32",1
"18/06/07","11:30",0.0,26.6,69.7,1006.0,149.5,1.5,2.9,121.0,0.46,20.6,22.9,"11:27:20",1
"18/06/07","11:40",0.0,26.6,69.1,1006.0,155.3,1.5,4.5,203.3,0.36,20.5,23.2,"11:39:12",1
"18/06/07","11:50",0.0,27.3,70.3,1005.7,190.1,1.6,2.9,226.2,0.43,21.5,23.4,"11:46:08",1
"18/06/07","12:00",0.2,26.7,66.4,1005.5,135.4,1.0,2.6,156.1,0.41,20.0,23.5,"11:50:16",1
"18/06/07","12:10",0.0,26.4,70.2,1005.5,178.9,1.2,2.8,218.3,0.35,20.6,23.8,"12:08:24",1
"18/06/07","12:20",0.0,26.0,69.9,1005.2,157.3,1.5,2.8,148.8,0.19,20.1,23.7,"12:16:56",1
"18/06/07","12:30",0.0,26.5,72.0,1004.8,138.4,1.0,4.0,121.6,0.18,21.1,23.8,"12:26:16",1
"18/06/07","12:40",0.0,27.6,67.9,1004.8,186.1,1.6,3.3,228.6,0.35,21.2,23.8,"12:35:52",1
"18/06/07","12:50",0.0,27.5,70.5,1005.0,172.4,2.0,4.0,168.9,0.42,21.7,23.8,"12:46:00",1
"18/06/07","13:00",0.2,27.8,66.6,1005.0,189.2,1.8,3.9,215.0,0.49,21.1,23.8,"12:57:44",1
"18/06/07","13:10",0.0,29.4,65.7,1005.5,152.4,1.6,3.4,221.1,0.63,22.3,24.0,"13:01:36",1
"18/06/07","13:20",0.0,27.6,66.4,1005.5,131.3,1.5,3.4,57.2,0.29,20.8,23.9,"13:16:32",1
"18/06/07","13:30",0.0,27.6,63.9,1005.2,106.8,0.7,2.0,113.2,0.23,20.2,23.9,"13:23:28",1
"18/06/07","13:40",0.0,26.8,67.3,1004.8,134.6,1.3,2.6,137.6,0.16,20.3,23.9,"13:36:00",1
"18/06/07","13:50",0.0,27.3,65.8,1005.0,128.8,1.2,3.1,148.4,0.23,20.4,24.0,"13:44:56",1
"18/06/07","14:00",0.2,26.9,67.4,1004.5,149.3,1.5,2.8,149.0,0.13,20.4,24.0,"13:58:08",1
"18/06/07","14:10",0.0,26.9,67.3,1003.8,142.7,1.2,3.1,130.9,0.18,20.4,24.0,"14:04:16",1
"18/06/07","14:20",0.0,28.2,66.9,1004.3,130.8,1.2,2.9,141.4,0.40,21.5,24.1,"14:17:20",1
"18/06/07","14:30",0.0,27.3,64.7,1004.3,124.6,1.0,2.9,115.0,0.22,20.1,24.1,"14:22:40",1
"18/06/07","14:40",0.0,27.9,64.4,1004.1,159.9,0.6,1.3,231.5,0.16,20.6,24.0,"14:30:08",1
"18/06/07","14:50",0.0,27.7,63.6,1004.5,128.3,1.0,5.1,137.6,0.24,20.2,24.0,"14:47:52",1
"18/06/07","15:00",0.0,27.1,66.6,1004.1,125.9,0.8,1.9,33.8,0.10,20.4,24.1,"14:52:32",1
"18/06/07","15:10",0.0,27.3,66.4,1003.8,166.0,0.8,2.8,139.2,0.13,20.5,23.9,"15:00:16",1
"18/06/07","15:20",0.0,27.2,66.1,1003.6,175.5,1.5,2.8,194.0,0.15,20.4,24.0,"15:11:52",1
"18/06/07","15:30",0.0,27.1,66.1,1004.1,177.2,1.3,3.2,139.8,0.10,20.3,23.8,"15:21:12",1
"18/06/07","15:40",0.0,27.3,65.1,1004.1,186.0,0.7,1.8,136.7,0.06,20.2,24.0,"15:30:24",1
"18/06/07","15:50",0.0,27.2,66.0,1004.1,150.2,1.0,2.8,180.4,0.09,20.3,24.0,"15:41:36",1
"18/06/07","16:00",0.0,27.3,65.2,1004.3,119.3,0.8,2.4,118.5,0.10,20.2,24.0,"15:53:52",1
"18/06/07","16:10",0.0,27.5,63.7,1004.3,6.4,0.7,1.6,72.7,0.11,20.0,24.0,"16:07:20",1
"18/06/07","16:20",0.0,28.0,64.9,1003.6,86.6,0.6,1.7,90.1,0.17,20.8,23.9,"16:17:20",1
"18/06/07","16:30",0.0,28.3,62.3,1003.8,15.4,0.7,1.8,92.0,0.08,20.4,23.7,"16:28:24",1
"18/06/07","16:40",0.0,27.7,64.5,1004.3,95.7,0.7,1.8,124.5,0.05,20.4,23.9,"16:35:04",1
"18/06/07","16:50",0.0,27.3,64.7,1004.3,116.8,0.8,2.6,115.2,0.05,20.1,23.7,"16:49:36",1
"18/06/07","17:00",0.0,26.9,66.2,1004.3,105.7,0.8,1.8,117.3,0.02,20.1,23.6,"16:51:36",1
"18/06/07","17:10",0.0,26.6,68.1,1004.5,128.7,0.6,1.7,115.8,0.01,20.3,23.8,"17:02:16",1
"18/06/07","17:20",0.0,26.5,68.3,1004.5,90.7,0.3,1.3,91.7,0.00,20.2,23.5,"17:10:24",1
"18/06/07","17:30",0.0,26.7,69.6,1004.3,342.1,0.7,1.4,6.7,0.01,20.7,23.5,"17:26:48",1
"18/06/07","17:40",0.0,26.3,71.4,1004.3,312.6,0.6,1.4,346.2,0.00,20.8,23.2,"17:30:08",1
"18/06/07","17:50",0.0,26.3,70.5,1004.5,359.5,0.7,2.4,159.0,0.00,20.5,23.5,"17:42:56",1
"18/06/07","18:00",0.0,26.3,70.7,1005.0,357.0,0.6,1.4,7.7,0.00,20.6,23.4,"17:50:40",1
"18/06/07","18:10",0.0,26.1,71.5,1004.5,349.4,0.5,1.3,326.6,0.00,20.6,23.3,"18:07:28",1
"18/06/07","18:20",0.0,25.8,72.8,1005.0,349.1,0.7,1.7,344.8,0.00,20.6,23.3,"18:10:40",1
"18/06/07","18:30",0.0,25.8,72.1,1005.0,95.5,0.8,2.9,161.2,0.00,20.4,23.2,"18:27:52",1
"18/06/07","18:40",0.0,25.8,71.8,1005.0,133.0,1.1,3.3,138.0,0.00,20.4,23.2,"18:30:48",1
"18/06/07","18:50",0.0,25.7,72.2,1005.2,94.9,1.0,2.5,142.3,0.00,20.4,23.0,"18:42:00",1
"18/06/07","19:00",0.0,25.7,72.5,1005.0,112.8,0.7,2.5,93.1,0.00,20.4,23.0,"18:50:32",1
"18/06/07","19:10",0.0,25.3,74.4,1005.2,271.1,1.0,2.0,272.3,0.00,20.5,23.0,"19:02:56",1
"18/06/07","19:20",0.0,24.8,73.7,1006.0,285.5,1.2,2.7,333.2,0.00,19.8,23.0,"19:19:04",1
"18/06/07","19:30",0.0,24.7,72.7,1005.7,305.1,1.0,3.2,223.6,0.00,19.5,23.0,"19:29:04",1
"18/06/07","19:40",0.0,24.6,72.1,1005.7,332.0,1.7,3.1,326.5,0.00,19.3,22.9,"19:35:44",1
"18/06/07","19:50",0.0,24.4,71.9,1005.7,313.3,1.3,2.5,330.6,0.00,19.0,22.8,"19:47:20",1
"18/06/07","20:00",0.0,24.2,72.4,1006.0,322.2,1.3,2.6,329.0,0.00,19.0,22.7,"19:51:28",1
"18/06/07","20:10",0.0,24.0,73.0,1006.2,306.5,1.2,2.4,345.8,0.00,18.9,22.7,"20:01:36",1
"18/06/07","20:20",0.0,23.9,73.8,1006.0,273.2,0.8,1.8,321.7,0.00,19.0,22.7,"20:11:20",1
"18/06/07","20:30",0.0,23.7,74.7,1006.4,219.8,0.7,1.8,218.9,0.00,19.0,22.5,"20:28:08",1
"18/06/07","20:40",0.0,23.5,75.4,1006.2,211.8,0.2,0.5,219.0,0.00,18.9,22.5,"20:30:08",1
"18/06/07","20:50",0.0,23.5,77.0,1006.2,313.9,0.8,1.6,332.6,0.00,19.3,22.5,"20:47:12",1
"18/06/07","21:00",0.0,23.2,79.1,1006.0,330.8,1.3,2.1,327.4,0.00,19.4,22.5,"20:58:32",1
"18/06/07","21:10",0.0,22.8,80.4,1006.2,331.8,0.8,1.7,340.7,0.00,19.3,22.3,"21:00:24",1
"18/06/07","21:20",0.0,22.5,82.2,1006.2,320.4,0.7,1.3,320.2,0.00,19.4,22.3,"21:17:44",1
"18/06/07","21:30",0.0,22.2,82.7,1006.2,340.1,1.1,1.4,339.9,0.00,19.2,22.1,"21:20:02",1
"18/06/07","21:40",0.0,22.1,83.4,1006.7,320.4,1.1,1.7,340.8,0.00,19.2,22.1,"21:32:48",1
"18/06/07","21:50",0.0,22.0,84.5,1006.4,302.7,1.2,2.0,319.2,0.00,19.3,22.1,"21:43:36",1
"18/06/07","22:00",0.2,21.9,85.4,1006.9,302.3,1.1,1.9,319.1,0.00,19.4,22.1,"21:53:12",1
"18/06/07","22:10",0.0,22.0,85.7,1006.7,303.1,1.1,1.6,316.9,0.00,19.5,22.0,"22:06:16",1
"18/06/07","22:20",0.0,22.0,85.8,1006.9,312.6,1.2,1.8,293.2,0.00,19.6,22.0,"22:13:28",1
"18/06/07","22:30",0.0,22.0,85.6,1006.9,313.2,1.3,2.1,313.8,0.00,19.5,22.1,"22:21:36",1
"18/06/07","22:40",0.0,22.1,85.8,1006.7,299.4,1.1,1.9,317.9,0.00,19.7,22.0,"22:33:44",1
"18/06/07","22:50",0.0,21.9,86.0,1006.7,295.4,1.1,1.7,316.5,0.00,19.5,21.9,"22:48:08",1
"18/06/07","23:00",0.0,21.9,86.1,1006.7,285.7,0.8,1.1,282.3,0.00,19.5,21.8,"22:56:16",1
"18/06/07","23:10",0.0,22.0,86.2,1006.2,315.8,1.2,1.8,314.1,0.00,19.6,21.8,"23:02:56",1
"18/06/07","23:20",0.0,21.9,86.5,1006.0,296.8,0.7,1.7,327.6,0.00,19.6,21.8,"23:18:40",1
"18/06/07","23:30",0.0,21.9,86.6,1006.2,317.0,1.5,2.1,306.7,0.00,19.6,21.7,"23:28:08",1
"18/06/07","23:40",0.0,21.9,86.9,1006.4,301.1,1.1,1.7,320.5,0.00,19.7,21.8,"23:35:12",1
"18/06/07","23:50",0.0,21.8,87.0,1006.2,272.9,0.7,1.1,255.1,0.00,19.6,21.8,"23:44:24",1
"18/06/07","24:00",0.0,21.8,87.4,1006.0,296.0,1.0,1.6,308.5,0.00,19.7,21.5,"23:53:20",1
